Windom, MN

10:59 AM CST on November 24, 2017 (GMT -0600)
Windom Municipal

Weather History for KMWM - April, 2014

Change the Weather History Date:

Sunday, April 6, 2014

  Actual Average Record
Temperature  
Mean Temperature 50 °F -  
Max Temperature 62 °F 54 °F 83 °F (1991)
Min Temperature 37 °F 29 °F 7 °F (1982)
Degree Days  
Heating Degree Days 16    
Moisture  
Dew Point 37 °F    
Average Humidity 65    
Maximum Humidity 87    
Minimum Humidity 39    
Precipitation  
Precipitation 0.00 in - - ()
Sea Level Pressure  
Sea Level Pressure 29.85 in    
Wind  
Wind Speed 11 mph (South)    
Max Wind Speed 16 mph    
Max Gust Speed 23 mph    
Visibility 10 miles    
Events Rain , Thunderstorm    
Averages and records for this station are not official NWS values.
T = Trace of Precipitation, MM = Missing Value Source: NWS Daily Summary

Daily Weather History Graph

Daily Weather History Graph

Search for Another Location

Airport or City:

Trip Planner

Search our weather history database for the weather conditions in past years. The results will help you decide how hot, cold, wet, or windy it might be!

Date:

Astronomy

Apr. 06, 2014 Rise Set
Actual Time 6:52 AM CDT 7:53 PM CDT
Civil Twilight 6:23 AM CDT 8:22 PM CDT
Nautical Twilight 5:48 AM CDT 8:58 PM CDT
Astronomical Twilight 5:11 AM CDT 9:35 PM CDT
Moon 11:48 AM CDT (4/6) 1:56 AM CDT (4/6)
Length of Visible Light 13h 59m
Length of Day
13h 00m
Waxing Crescent, 44% of the Moon is Illuminated
Apr 6
Waxing Crescent
Apr 7
First Quarter
Apr 15
Full
Apr 22
Last Quarter
Apr 29
New

Hourly Weather History & Observations

Time (CDT) Temp. Windchill Dew Point Humidity Pressure Visibility Wind Dir Wind Speed Gust Speed Precip Events Conditions
12:13 AM 42.8 °F 35.1 °F 30.2 °F 61% 29.89 in 10.0 mi South 16.1 mph 21.9 mph N/A   Clear
12:32 AM 42.8 °F 35.4 °F 30.2 °F 61% 29.89 in 10.0 mi South 15.0 mph - N/A   Clear
12:52 AM 42.8 °F 35.4 °F 30.2 °F 61% 29.89 in 10.0 mi South 15.0 mph - N/A   Clear
1:12 AM 42.8 °F 35.8 °F 30.2 °F 61% 29.89 in 10.0 mi South 13.8 mph 19.6 mph N/A   Clear
1:32 AM 42.8 °F 35.4 °F 30.2 °F 61% 29.88 in 10.0 mi South 15.0 mph 19.6 mph N/A   Clear
1:53 AM 42.8 °F 35.8 °F 30.2 °F 61% 29.87 in 10.0 mi South 13.8 mph - N/A   Clear
2:12 AM 42.8 °F 36.2 °F 30.2 °F 61% 29.87 in 10.0 mi South 12.7 mph - N/A   Clear
2:32 AM 41.0 °F 33.9 °F 30.2 °F 65% 29.86 in 10.0 mi South 12.7 mph - N/A   Clear
2:53 AM 41.0 °F 33.5 °F 30.2 °F 65% 29.86 in 10.0 mi South 13.8 mph 20.7 mph N/A   Clear
3:12 AM 41.0 °F 33.5 °F 30.2 °F 65% 29.85 in 10.0 mi South 13.8 mph 23.0 mph N/A   Clear
3:32 AM 39.2 °F 30.5 °F 30.2 °F 70% 29.85 in 10.0 mi South 16.1 mph 21.9 mph N/A   Clear
3:53 AM 39.2 °F 32.0 °F 30.2 °F 70% 29.85 in 10.0 mi South 11.5 mph 19.6 mph N/A   Scattered Clouds
4:12 AM 39.2 °F 31.2 °F 30.2 °F 70% 29.86 in 10.0 mi South 13.8 mph 21.9 mph N/A   Scattered Clouds
4:32 AM 37.4 °F 29.8 °F 30.2 °F 75% 29.86 in 10.0 mi SSW 11.5 mph - N/A   Scattered Clouds
4:52 AM 39.2 °F 32.5 °F 30.2 °F 70% 29.85 in 10.0 mi South 10.4 mph - N/A   Clear
5:12 AM 39.2 °F 31.6 °F 30.2 °F 70% 29.85 in 10.0 mi South 12.7 mph - N/A   Clear
5:33 AM 39.2 °F 31.6 °F 32.0 °F 75% 29.84 in 10.0 mi South 12.7 mph 19.6 mph N/A   Clear
5:52 AM 39.2 °F 31.2 °F 32.0 °F 75% 29.84 in 10.0 mi South 13.8 mph - N/A   Clear
6:12 AM 37.4 °F 29.3 °F 32.0 °F 81% 29.84 in 10.0 mi South 12.7 mph - N/A   Scattered Clouds
6:33 AM 37.4 °F 28.9 °F 32.0 °F 81% 29.84 in 10.0 mi SSW 13.8 mph 23.0 mph N/A   Clear
6:52 AM 37.4 °F 28.9 °F 32.0 °F 81% 29.85 in 10.0 mi SSW 13.8 mph - N/A   Clear
7:12 AM 37.4 °F 29.3 °F 32.0 °F 81% 29.85 in 10.0 mi SSW 12.7 mph - N/A   Clear
7:33 AM 37.4 °F 30.3 °F 32.0 °F 81% 29.86 in 10.0 mi SSW 10.4 mph - N/A   Clear
7:52 AM 39.2 °F 33.6 °F 33.8 °F 81% 29.87 in 10.0 mi SSW 8.1 mph - N/A   Scattered Clouds
8:12 AM 39.2 °F 34.2 °F 33.8 °F 81% 29.87 in 10.0 mi SSW 6.9 mph - N/A   Clear
8:33 AM 42.8 °F 37.0 °F 33.8 °F 70% 29.87 in 10.0 mi SW 10.4 mph - N/A   Clear
8:52 AM 41.0 °F 33.1 °F 33.8 °F 76% 29.87 in 10.0 mi SW 15.0 mph - N/A   Clear
9:12 AM 41.0 °F 33.9 °F 33.8 °F 76% 29.87 in 10.0 mi SW 12.7 mph - N/A   Clear
9:33 AM 42.8 °F 37.0 °F 35.6 °F 76% 29.87 in 10.0 mi WSW 10.4 mph - N/A   Scattered Clouds
9:52 AM 44.6 °F 39.7 °F 35.6 °F 71% 29.88 in 7.0 mi WSW 9.2 mph - N/A   Scattered Clouds
10:12 AM 46.4 °F 41.1 °F 35.6 °F 66% 29.87 in 10.0 mi West 11.5 mph - N/A   Scattered Clouds
10:33 AM 48.2 °F - 37.4 °F 66% 29.87 in 10.0 mi WSW 11.5 mph - N/A   Clear
10:52 AM 51.8 °F - 37.4 °F 58% 29.87 in 10.0 mi WSW 10.4 mph - N/A   Clear
11:12 AM 53.6 °F - 37.4 °F 54% 29.86 in 10.0 mi WSW 11.5 mph - N/A   Clear
11:33 AM 51.8 °F - 39.2 °F 62% 29.86 in 10.0 mi SW 11.5 mph - N/A   Clear
11:52 AM 53.6 °F - 39.2 °F 58% 29.86 in 10.0 mi SSW 9.2 mph - N/A   Clear
12:12 PM 53.6 °F - 39.2 °F 58% 29.85 in 10.0 mi SW 10.4 mph - N/A   Clear
12:33 PM 53.6 °F - 41.0 °F 62% 29.85 in 10.0 mi SSW 9.2 mph - N/A   Clear
12:52 PM 55.4 °F - 42.8 °F 63% 29.85 in 10.0 mi SW 8.1 mph - N/A   Clear
1:12 PM 57.2 °F - 42.8 °F 59% 29.84 in 10.0 mi SW 8.1 mph - N/A   Clear
1:33 PM 57.2 °F - 42.8 °F 59% 29.83 in 10.0 mi SW 5.8 mph - N/A   Clear
1:52 PM 57.2 °F - 42.8 °F 59% 29.83 in 10.0 mi SSW 8.1 mph - N/A   Clear
2:12 PM 60.8 °F - 44.6 °F 55% 29.83 in 10.0 mi SSW 8.1 mph - N/A   Clear
2:32 PM 60.8 °F - 42.8 °F 52% 29.82 in 10.0 mi SSW 8.1 mph - N/A   Clear
2:52 PM 62.6 °F - 44.6 °F 52% 29.82 in 10.0 mi SW 4.6 mph - N/A   Clear
3:13 PM 62.6 °F - 42.8 °F 48% 29.82 in 10.0 mi SSE 3.5 mph - N/A   Mostly Cloudy
3:32 PM 60.8 °F - 42.8 °F 52% 29.81 in 10.0 mi South 4.6 mph - N/A   Mostly Cloudy
3:52 PM 60.8 °F - 42.8 °F 52% 29.81 in 10.0 mi Calm Calm - N/A   Scattered Clouds
4:13 PM 62.6 °F - 41.0 °F 45% 29.81 in 10.0 mi Calm Calm - N/A   Clear
4:32 PM 60.8 °F - 39.2 °F 45% 29.80 in 10.0 mi Calm Calm - N/A   Clear
4:52 PM 62.6 °F - 37.4 °F 39% 29.80 in 10.0 mi North 4.6 mph - N/A   Clear
5:13 PM 62.6 °F - 37.4 °F 39% 29.80 in 10.0 mi NE 5.8 mph - N/A Thunderstorm Scattered Clouds
5:32 PM 62.6 °F - 37.4 °F 39% 29.80 in 10.0 mi NNE 3.5 mph - N/A Thunderstorm Thunderstorm
5:52 PM 62.6 °F - 37.4 °F 39% 29.80 in 10.0 mi North 5.8 mph - N/A   Clear
6:13 PM 60.8 °F - 37.4 °F 42% 29.80 in 10.0 mi North 8.1 mph - N/A Thunderstorm Clear
6:52 PM 60.8 °F - 37.4 °F 42% 29.80 in 10.0 mi NNE 5.8 mph - N/A Thunderstorm Thunderstorm
7:13 PM 57.2 °F - 37.4 °F 48% 29.79 in 10.0 mi NNE 6.9 mph - N/A Thunderstorm Clear
7:32 PM 55.4 °F - 39.2 °F 54% 29.80 in 10.0 mi NE 5.8 mph - N/A Thunderstorm Thunderstorm
7:52 PM 53.6 °F - 41.0 °F 62% 29.80 in 10.0 mi NNE 4.6 mph - N/A Thunderstorm Thunderstorm
8:13 PM 51.8 °F - 42.8 °F 71% 29.82 in 10.0 mi SE 4.6 mph - N/A Thunderstorm Thunderstorm
8:32 PM 53.6 °F - 41.0 °F 62% 29.82 in 10.0 mi SSE 4.6 mph - N/A   Overcast
8:52 PM 51.8 °F - 41.0 °F 67% 29.84 in 10.0 mi SSE 10.4 mph - N/A   Mostly Cloudy
9:13 PM 50.0 °F - 42.8 °F 76% 29.85 in 10.0 mi SSE 9.2 mph - N/A   Mostly Cloudy
9:32 PM 50.0 °F - 42.8 °F 76% 29.86 in 10.0 mi South 12.7 mph 18.4 mph N/A   Overcast
9:52 PM 48.2 °F - 44.6 °F 87% 29.86 in 10.0 mi SSE 12.7 mph 16.1 mph N/A   Mostly Cloudy
10:13 PM 48.2 °F - 44.6 °F 87% 29.86 in 10.0 mi SSE 10.4 mph - N/A   Overcast
10:32 PM 48.2 °F - 44.6 °F 87% 29.86 in 10.0 mi SSE 10.4 mph - N/A   Overcast
10:52 PM 48.2 °F - 42.8 °F 82% 29.86 in 10.0 mi SE 8.1 mph - N/A Rain Light Rain
11:13 PM 46.4 °F 45.2 °F 42.8 °F 87% 29.86 in 10.0 mi East 3.5 mph - N/A   Overcast
11:32 PM 46.4 °F 45.2 °F 42.8 °F 87% 29.85 in 10.0 mi East 3.5 mph - N/A   Overcast
11:52 PM 48.2 °F - 42.8 °F 82% 29.86 in 10.0 mi Calm Calm - N/A Rain Light Rain